Location: Melbourne
(37.8170°S, 144.9670°E)
Time: 13:40:52
(UTC+11:00)

ADEOS Rocket - Visible Passes

Search period start: 17 January 2017 00:00
Search period end: 27 January 2017 00:00
Orbit: 859 x 1306 km, 98.7° (Epoch: 15 January)

Date Brightness Start Highest point End Pass type
(mag) Time Alt. Az. Time Alt. Az. Time Alt. Az.
17 Jan 3.9 03:06:31 21° NE 03:11:03 51° ESE 03:17:14 10° S visible
17 Jan 4.2 04:53:29 19° NW 04:56:39 26° W 05:02:03 10° SW visible
18 Jan 5.1 02:17:28 10° ENE 02:22:29 22° ESE 02:27:12 10° SSE visible
18 Jan 3.2 04:04:06 31° N 04:07:34 62° WNW 04:13:56 10° SSW visible
19 Jan 3.7 03:14:43 26° NE 03:18:41 58° ESE 03:24:53 10° S visible
19 Jan 4.4 05:01:41 18° NW 05:04:22 22° W 05:09:17 10° SW visible
20 Jan 4.9 02:25:20 12° ENE 02:30:03 25° ESE 02:35:01 10° SSE visible
20 Jan 3.3 04:12:18 33° NNW 04:15:14 53° W 04:21:26 10° SSW visible
21 Jan 3.4 03:22:54 31° NNE 03:26:19 67° ESE 03:32:31 10° S visible
21 Jan 4.5 05:09:53 16° WNW 05:12:06 18° W 05:16:23 10° SW visible
22 Jan 4.7 02:33:31 16° ENE 02:37:37 29° ESE 02:42:48 10° S visible
22 Jan 3.5 04:20:29 33° NNW 04:22:54 45° W 04:28:53 10° SSW visible
23 Jan 5.6 01:47:18 10° ESE 01:49:15 11° ESE 01:51:10 10° SE visible
23 Jan 3.2 03:31:05 37° NNE 03:33:56 78° ESE 03:40:07 10° S visible
23 Jan 4.7 05:18:03 14° WNW 05:19:49 15° W 05:23:19 10° WSW visible
24 Jan 4.5 02:41:41 20° ENE 02:45:11 33° ESE 02:50:32 10° S visible
24 Jan 3.6 04:28:40 32° NW 04:30:35 38° W 04:36:18 10° SSW visible
25 Jan 5.5 01:53:54 10° E 01:56:45 13° ESE 01:59:31 10° SSE visible
25 Jan 3.0 03:39:15 44° NNE 03:41:34 89° ESE 03:47:41 10° SSW visible
25 Jan 4.8 05:26:14 11° WNW 05:27:34 12° W 05:29:53 10° WSW visible
26 Jan 4.2 02:49:51 25° ENE 02:52:46 38° ESE 02:58:15 10° S visible
26 Jan 3.8 04:36:49 29° WNW 04:38:14 32° W 04:43:40 10° SW visible
